This demonstration page uses our WeatherBlox Daily Observations layout. Learn more.

Left ArrowRight Arrow

44.8408, -93.29828

Hourly Observations for September 14, 2020

Temp ( °F °C ) Dew Point ( °F °C ) Humidity (%) Winds ( mph kmh ) Pressure ( in mb ) Visibility ( mi km ) Precip ( " mm )
12:53 am 00:53 Mostly Cloudy 61 16.1 54 12.2 78 78 ENE 7 11 30.27 1025 10 16 0.00 0.00
1:53 am 01:53 Cloudy 61 16.1 53 11.7 75 75 ENE 9 15 30.28 1025 10 16 0.00 0.00
2:53 am 02:53 Mostly Cloudy 60 15.6 52 11.1 75 75 ENE 6 9 30.28 1026 10 16 0.00 0.00
3:53 am 03:53 Clear 59 15 50 10 72 72 E 7 11 30.29 1026 10 16 0.00 0.00
4:53 am 04:53 Mostly Clear 58 14.4 50 10 75 75 ENE 5 7 30.29 1026 10 16 0.00 0.00
5:53 am 05:53 Mostly Clear 57 13.9 50 10 78 78 ENE 6 9 30.30 1026 10 16 0.00 0.00
6:53 am 06:53 Sunny 57 13.9 51 10.6 81 81 E 8 13 30.31 1026 10 16 0.00 0.00
7:53 am 07:53 Sunny 57 13.9 51 10.6 81 81 E 7 11 30.32 1027 10 16 0.00 0.00
8:53 am 08:53 Partly Cloudy 59 15 52 11.1 78 78 ESE 10 17 30.31 1026 10 16 0.00 0.00
9:53 am 09:53 Partly Cloudy 61 16.1 54 12.2 78 78 ESE 10 17 30.31 1026 10 16 0.00 0.00
10:53 am 10:53 Mostly Sunny 64 17.8 56 13.3 75 75 SE 12 19 30.31 1026 10 16 0.00 0.00
11:53 am 11:53 Mostly Sunny 66 18.9 58 14.4 75 75 SE 13 20 30.29 1026 10 16 0.00 0.00
12:53 pm 12:53 Mostly Sunny 69 20.6 60 15.6 73 73 SE 10 17 30.27 1025 10 16 0.00 0.00
1:53 pm 13:53 Partly Cloudy 73 22.8 61 16.1 66 66 SE 13 20 30.23 1024 10 16 0.00 0.00
2:53 pm 14:53 Partly Cloudy 76 24.4 63 17.2 64 64 SE 12 19 30.19 1022 10 16 0.00 0.00
3:53 pm 15:53 Partly Cloudy 78 25.6 60 15.6 54 54 S 17 28 30.16 1021 10 16 0.00 0.00
4:53 pm 16:53 Partly Cloudy 78 25.6 60 15.6 54 54 S 13 20 30.15 1021 10 16 0.00 0.00
5:53 pm 17:53 Partly Cloudy 77 25 60 15.6 56 56 S 15 24 30.13 1020 10 16 0.00 0.00
6:53 pm 18:53 Partly Cloudy 76 24.4 60 15.6 58 58 S 12 19 30.12 1020 10 16 0.00 0.00
7:53 pm 19:53 Partly Cloudy 74 23.3 60 15.6 62 62 S 13 20 30.11 1020 10 16 0.00 0.00
8:53 pm 20:53 Mostly Clear 72 22.2 59 15 64 64 S 12 19 30.12 1020 10 16 0.00 0.00
9:53 pm 21:53 Mostly Clear 71 21.7 59 15 66 66 S 9 15 30.12 1020 10 16 0.00 0.00
10:53 pm 22:53 Mostly Clear 71 21.7 58 14.4 63 63 SSW 8 13 30.12 1020 10 16 0.00 0.00
11:53 pm 23:53 Mostly Clear 70 21.1 57 13.9 64 64 SSW 12 19 30.11 1020 10 16 0.00 0.00

Powered by AerisWeather